Dewpoint
57 58 60 63 65 65 64 65 65 63 64 66 67 67 67 66 66 66 66 66 65 64 64 64 64 64 66 66 66 66 66 65 66 66 67 67 67 67 67 67 64 63 65
56 58 61 63 65 64 64 65 65 66 66 67 68 67 66 65 65 65 65 66 65 65 63 63 63 64 64 64 64 65 63 63 64 64 63 66 67 66 66 67 67 66 64
57 58 62 65 65 65 63 64 65 66 67 67 66 65 65 64 63 63 63 63 63 62 62 60 62 61 62 64 63 63 64 65 65 65 64 61 62 64 65 66 66 66 66
57 61 64 65 65 65 64 64 66 67 66 65 64 62 62 61 60 60 60 60 60 59 59 59 60 60 60 63 63 63 62 60 59 59 63 64 61 62 63 64 64 66 66
59 61 64 64 65 65 64 67 67 65 64 63 61 60 59 59 58 58 57 57 57 56 56 57 57 57 57 58 60 60 57 54 52 54 58 62 63 62 63 63 62 64 65
58 60 63 63 64 65 64 64 64 63 61 60 59 58 57 57 56 56 55 55 54 54 54 54 54 54 54 54 53 52 48 47 47 50 54 58 59 60 59 60 61 60 61
57 58 63 63 63 63 64 63 63 62 59 58 57 57 56 55 55 54 54 53 52 52 52 52 52 51 51 50 48 45 41 41 41 46 50 55 57 57 56 56 57 58 59
56 56 60 62 61 62 61 61 60 58 57 56 56 55 55 54 53 53 52 51 50 49 49 49 49 48 47 46 44 41 36 31 34 39 45 50 54 55 54 53 54 54 55
52 53 53 57 59 58 58 57 56 56 55 55 54 54 53 52 51 51 50 49 48 46 45 44 45 45 44 42 38 36 32 28 29 36 41 47 51 52 51 51 51 51 51
49 49 47 47 50 51 54 54 54 53 53 52 52 50 49 48 48 47 46 46 45 44 42 40 38 39 39 37 34 30 26 20 22 33 40 45 48 49 49 48 48 49 49
47 47 46 45 44 43 45 49 49 49 50 49 46 42 37 36 39 41 42 42 42 41 39 37 34 30 28 31 29 26 18 13 17 33 39 44 46 46 46 46 46 46 47
45 43 39 39 38 37 36 36 35 35 33 32 28 29 31 34 36 36 35 35 34 34 33 32 28 24 17 14 14 17 14 15 21 32 39 43 44 46 47 48 51 52 52
42 41 36 35 33 34 33 30 27 25 24 24 23 22 20 20 20 20 20 20 20 20 16 15 14 14 14 14 12 15 16 17 20 32 40 44 49 51 51 50 50 50 50
40 40 35 32 30 30 30 25 22 21 22 21 19 17 17 17 17 17 17 19 17 17 15 14 12 13 13 13 13 15 16 16 19 29 37 41 45 48 48 47 46 46 46
38 39 33 29 27 26 24 22 21 23 20 20 19 17 17 17 16 17 17 17 17 17 16 14 12 11 12 12 13 16 16 13 15 24 33 42 42 43 42 42 42 42 43
37 36 32 28 27 24 23 23 22 21 21 21 20 19 18 18 17 16 17 17 16 16 17 16 13 11 12 12 12 15 16 11 11 15 19 32 35 37 38 38 38 37 38
37 34 33 28 27 24 23 23 21 20 21 21 20 19 19 19 17 17 16 16 17 16 16 16 15 12 11 13 12 14 17 11 12 13 16 16 18 30 33 33 33 33 34
37 33 31 27 26 24 23 22 20 20 20 20 20 19 19 19 18 17 17 16 17 17 16 15 16 12 12 14 13 14 16 15 11 13 16 16 16 15 21 27 28 30 32
36 33 29 28 26 24 23 22 20 19 19 20 20 19 19 19 19 18 17 17 17 17 16 14 16 14 13 14 12 16 17 14 13 12 14 14 16 17 15 19 23 25 28
36 33 30 27 26 24 23 22 20 20 20 19 20 19 19 18 18 18 18 17 17 15 14 14 13 15 16 16 12 15 17 15 15 14 14 13 16 17 15 16 17 17 23
34 32 29 26 26 24 22 19 18 16 19 19 19 19 18 18 18 17 17 16 16 14 13 13 15 13 14 17 10 12 16 15 15 15 15 15 16 16 15 15 16 16 16
33 32 29 27 25 24 22 19 17 17 18 18 20 19 18 18 18 17 16 16 15 15 13 13 13 13 15 16 10 10 2 8 14 13 16 15 15 16 14 15 16 15 17
33 31 30 27 24 24 23 22 20 20 19 18 18 18 19 18 18 17 16 16 15 16 14 15 14 13 11 16 16 8 -1 -3 9 14 14 15 14 14 13 15 15 16 17
34 31 30 27 25 24 23 20 18 14 13 15 16 18 19 18 18 18 17 16 15 15 15 15 15 15 14 11 14 15 15 13 5 2 12 14 16 13 14 15 16 16 16
33 30 29 27 25 24 23 20 18 16 17 17 17 17 18 19 18 17 16 15 14 15 14 14 14 14 15 13 13 14 14 15 15 11 7 10 12 14 14 15 15 15 16
32 29 27 26 25 24 22 21 18 18 18 16 16 15 17 18 17 16 15 14 14 14 15 15 15 14 14 15 15 15 13 11 12 12 12 11 12 12 14 15 15 15 16
Wind_Speed
2 5 8 8 9 9 8 9 11 12 14 16 18 18 16 19 20 18 18 18 19 21 20 18 18 20 19 19 20 20 22 22 21 20 20 19 19 19 19 18 17 19 19
5 6 8 10 12 12 12 12 13 13 16 19 20 19 19 19 19 21 20 21 21 22 20 17 18 18 18 18 19 20 20 20 20 20 18 18 19 20 18 17 17 18 18
4 7 9 3 11 13 15 13 14 14 19 25 22 22 20 19 18 19 19 20 20 20 19 18 18 18 18 19 20 20 20 20 20 19 17 16 19 20 21 20 18 17 16
4 7 4 17 8 5 12 14 19 20 24 25 23 22 19 16 17 17 17 18 19 19 18 17 19 19 20 20 19 20 19 21 21 19 16 15 17 20 20 19 19 20 15
3 7 9 15 19 22 24 20 27 27 23 23 23 23 19 17 18 18 18 19 19 18 18 18 19 19 20 20 20 20 20 20 21 19 18 19 16 20 20 19 18 18 21
4 6 10 14 16 20 22 20 23 21 20 22 23 22 19 17 17 18 18 19 19 18 17 19 18 19 19 20 20 20 20 19 18 17 18 19 18 19 17 18 17 17 18
5 5 9 14 17 18 22 21 21 17 16 22 22 19 19 18 17 18 18 19 18 17 17 18 18 18 19 19 20 20 18 19 16 16 16 16 16 15 16 16 16 16 16
6 5 8 12 14 18 20 19 20 19 18 19 20 19 19 18 17 17 17 18 18 18 17 17 18 18 19 18 19 20 19 16 14 14 13 13 13 14 15 15 15 15 15
7 8 8 7 9 15 17 17 19 18 20 18 18 19 18 18 16 17 16 18 19 17 17 16 17 18 18 19 18 18 18 17 14 11 11 10 12 12 12 13 13 13 13
8 8 9 7 10 9 13 15 18 16 20 18 17 20 18 19 17 17 17 17 18 17 17 17 17 18 18 19 18 17 16 15 12 10 10 11 11 12 12 12 12 12 13
10 9 9 11 10 12 11 14 16 18 18 18 16 17 14 13 14 17 17 17 16 17 17 17 17 17 17 18 17 16 15 11 9 10 9 10 11 11 11 12 12 11 11
16 14 11 11 13 12 10 12 13 14 12 12 11 12 11 13 15 17 17 16 16 16 17 17 17 15 14 11 10 12 11 10 9 9 10 9 10 11 12 12 15 15 14
14 12 15 14 12 13 11 10 9 9 10 10 11 12 11 11 11 10 10 8 8 12 10 11 11 11 13 10 10 10 10 10 8 8 12 12 13 15 17 17 17 17 15
21 17 14 15 14 12 10 9 10 11 9 10 11 12 11 10 10 10 10 8 9 8 10 10 9 10 12 12 11 11 11 9 8 8 11 14 13 17 18 17 16 16 15
21 20 18 16 15 14 15 11 12 12 10 10 10 10 10 11 12 10 10 9 8 8 7 9 9 10 9 10 11 10 11 11 10 9 10 17 17 17 16 15 15 15 14
20 21 17 18 16 16 14 13 12 12 12 10 11 10 10 11 10 11 9 9 9 8 7 9 9 8 9 8 11 10 10 10 10 10 9 12 16 15 16 16 16 15 14
22 18 22 19 16 17 17 14 12 10 10 10 10 10 11 11 10 10 9 9 8 8 8 7 8 8 9 8 10 8 7 8 9 10 8 8 9 14 16 16 17 16 14
20 24 20 17 17 16 14 13 13 12 11 10 11 10 10 11 10 9 9 8 7 7 7 8 6 8 8 7 6 6 5 5 6 8 8 8 9 8 11 16 16 15 14
23 23 23 21 22 18 17 14 12 12 10 9 10 10 11 10 10 10 9 8 7 8 8 7 8 7 8 6 6 5 4 6 4 6 8 8 9 9 10 13 17 15 16
22 22 22 20 20 20 17 14 12 11 10 9 9 10 11 9 10 10 9 9 8 9 8 7 7 8 6 4 6 6 3 5 4 5 6 7 8 9 12 12 11 11 15
21 24 27 26 23 22 21 21 14 13 11 9 10 12 11 10 10 10 9 9 8 10 8 5 2 8 11 7 4 4 5 4 2 3 2 4 7 7 11 12 10 10 11
26 28 28 29 29 26 21 17 10 14 9 10 10 11 12 12 10 9 8 8 9 9 8 8 6 3 6 11 4 2 1 3 2 1 1 2 5 5 11 11 10 12 10
24 27 26 27 28 24 22 18 15 13 11 7 10 11 10 13 11 11 9 9 9 8 8 7 8 6 5 6 11 4 1 1 4 1 2 2 5 7 12 12 11 12 11
20 18 21 22 24 22 23 21 23 21 21 11 13 12 12 13 13 11 10 9 9 7 8 7 6 6 4 5 4 7 6 3 2 4 1 2 3 13 9 10 12 10 10
11 14 16 20 24 24 24 22 21 17 11 15 14 15 12 10 11 11 10 10 9 7 7 7 6 6 6 4 3 2 3 3 2 2 6 6 9 5 10 11 9 8 9
8 12 14 17 19 21 25 22 23 21 20 19 16 15 12 11 10 10 11 9 8 7 7 6 5 5 5 5 4 3 1 0 0 1 4 8 13 6 13 8 8 9 9
Wind_Direction
14 320 306 289 276 211 193 170 164 149 138 127 114 110 108 97 100 95 90 88 90 95 82 77 73 76 70 76 83 83 80 75 72 70 68 70 69 69 66 66 67 64 61
290 308 297 277 259 206 197 174 148 154 146 128 118 109 101 92 87 86 84 83 86 83 83 77 72 75 75 79 81 83 77 73 69 63 59 71 70 71 66 61 58 67 61
308 320 302 297 209 202 194 174 147 143 160 117 101 92 88 84 85 82 80 78 77 81 82 83 82 78 73 78 83 80 75 70 63 60 60 71 68 64 65 65 64 60 64
301 340 92 52 135 124 204 195 155 134 103 102 103 99 95 98 94 92 91 91 88 86 83 82 81 77 74 77 81 81 73 67 61 56 61 66 74 70 66 62 62 65 63
8 10 92 85 83 75 71 86 143 106 107 105 105 100 99 97 94 95 92 91 88 86 83 79 76 75 74 75 77 78 72 65 60 60 58 59 63 66 58 55 59 55 53
50 22 94 91 91 93 92 90 87 98 112 110 102 101 103 101 100 99 94 91 87 83 82 79 73 73 73 72 72 70 67 62 63 58 52 54 61 60 57 52 52 52 47
75 21 99 105 97 100 99 105 104 107 109 107 106 113 110 108 105 100 95 90 88 85 80 79 77 73 71 70 70 69 66 62 65 58 51 52 56 57 58 55 54 52 49
111 54 88 99 110 111 109 117 117 121 117 110 116 114 109 106 103 98 94 92 86 81 80 76 76 73 71 69 68 66 65 64 65 62 54 53 50 51 48 47 48 47 47
118 106 83 82 108 108 120 120 120 123 115 113 114 110 107 102 97 93 89 86 84 81 79 75 74 72 71 68 66 66 62 61 66 60 52 49 43 50 51 46 43 44 43
131 121 104 86 100 88 122 121 118 116 113 113 110 107 104 100 93 90 85 83 83 83 79 78 74 71 71 68 64 60 60 58 60 56 48 45 46 49 49 48 47 45 42
153 142 129 111 95 97 84 113 117 119 111 111 109 101 92 89 86 87 84 83 82 81 81 75 72 73 72 67 62 62 61 48 45 48 47 43 53 52 50 50 47 50 51
176 159 149 138 132 113 103 101 94 95 99 100 105 104 96 85 90 89 84 83 80 78 75 75 74 66 62 64 54 51 59 64 60 46 45 47 67 75 74 71 65 57 56
180 167 161 152 141 133 126 118 112 112 113 114 115 107 103 96 94 95 89 76 77 71 69 65 64 62 61 60 59 61 63 62 65 57 52 46 59 67 71 67 66 55 47
183 180 172 161 151 140 131 131 129 128 138 133 124 123 118 111 105 97 95 87 79 69 73 67 66 66 67 63 59 66 64 65 69 68 57 58 68 69 65 65 59 53 46
191 184 177 165 157 153 146 147 143 144 143 136 127 126 131 127 120 112 103 95 86 82 77 76 67 65 67 68 63 67 70 67 68 66 62 60 70 64 60 58 56 50 45
192 191 175 171 164 156 151 153 152 147 142 145 139 135 132 121 119 115 111 103 90 78 74 73 65 61 65 67 66 66 73 68 71 74 72 68 64 62 60 52 43 37 30
197 182 181 171 164 160 157 157 147 144 143 142 129 131 128 125 128 124 120 108 97 83 78 79 65 58 58 68 63 63 79 74 75 73 71 73 65 53 55 43 30 27 23
185 184 175 172 165 159 155 149 147 149 146 146 140 137 132 127 126 118 105 95 99 91 77 65 54 52 53 65 68 71 89 96 80 78 76 73 63 51 45 34 27 22 16
190 180 176 165 166 159 152 145 144 139 138 141 131 132 134 132 130 125 120 113 103 93 76 72 58 46 37 58 75 87 97 91 89 73 85 70 54 53 35 20 18 20 11
183 182 176 168 163 156 144 137 135 140 138 139 141 140 137 134 123 116 113 106 97 83 69 69 79 65 52 63 88 85 86 94 98 75 96 64 56 50 26 21 10 7 2
183 181 179 171 168 157 158 154 156 163 152 149 146 143 140 134 128 123 114 106 98 93 84 68 84 50 42 29 114 104 92 172 119 61 125 51 39 27 15 12 6 358 348
187 185 183 182 172 172 169 166 163 153 155 150 144 141 141 137 130 124 124 117 109 107 86 69 63 88 56 34 53 91 146 184 229 64 87 30 13 354 358 1 355 349 346
192 191 187 182 176 172 164 146 127 107 117 131 152 148 146 140 136 136 132 124 111 103 91 74 62 70 76 55 47 43 19 320 323 204 213 319 340 347 342 347 346 342 337
206 192 185 178 175 169 162 164 164 168 166 176 161 150 142 142 141 135 128 117 105 102 100 96 82 78 86 65 60 50 60 40 338 306 190 330 347 333 334 331 329 328 327
194 193 185 175 173 168 168 169 165 162 155 138 139 140 137 136 138 136 130 122 115 110 108 109 100 85 75 86 72 77 67 55 48 294 292 317 324 317 309 314 311 322 327
172 170 172 175 178 171 173 169 168 157 145 145 150 148 147 142 143 139 132 125 120 121 120 113 105 101 107 114 116 111 110 155 202 281 293 316 311 304 313 308 318 331 325